Overview Statistics Trail Chart Weather Telemetry Raw packets
 

This is the latest recevied weather packets stored in our database for station/object N6GPM. If no packets are shown the sender has not sent any weather packets the latest 10 day(s).

<< 95 96 97 98 99 100 101 >>
Time Temp. Humidity Pressure Rain* Wind** Luminosity Snow
1787971178 31.67° C 37% 1015.8 hPa 0 mm - 0 W/m² -
1787970877 31.67° C 37% 1015.9 hPa 0 mm - 0 W/m² -
1787970572 31.67° C 36% 1015.8 hPa 0 mm - 1 W/m² -
1787970267 31.67° C 37% 1015.8 hPa 0 mm - 3 W/m² -
1787969965 32.22° C 36% 1015.8 hPa 0 mm - 5 W/m² -
1787969667 32.22° C 36% 1015.6 hPa 0 mm - 9 W/m² -
1787969359 32.22° C 35% 1015.7 hPa 0 mm - 14 W/m² -
1787969058 32.22° C 35% 1015.8 hPa 0 mm - 19 W/m² -
1787968753 32.78° C 35% 1015.8 hPa 0 mm - 25 W/m² -
1787968456 32.78° C 35% 1016 hPa 0 mm - 33 W/m² -
1787968142 33.33° C 34% 1015.9 hPa 0 mm - 39 W/m² -
1787967845 33.33° C 32% 1016.1 hPa 0 mm - 47 W/m² -
1787967539 33.89° C 31% 1015.9 hPa 0 mm - 54 W/m² -
1787967233 33.89° C 29% 1015.8 hPa 0 mm - 64 W/m² -
1787966930 33.89° C 29% 1016 hPa 0 mm - 75 W/m² -
1787966626 33.89° C 31% 1016 hPa 0 mm - 87 W/m² -
1787966320 34.44° C 32% 1015.8 hPa 0 mm - 99 W/m² -
1787966020 35° C 30% 1015.9 hPa 0 mm - 109 W/m² -
1787965708 35° C 29% 1015.9 hPa 0 mm - 120 W/m² -
1787965403 35° C 28% 1015.9 hPa 0 mm - 133 W/m² -
1787965103 35° C 28% 1015.5 hPa 0 mm - 148 W/m² -
1787964797 35° C 29% 1015.8 hPa 0 mm - 165 W/m² -
1787964493 35° C 28% 1015.7 hPa 0 mm - 184 W/m² -
1787964188 35° C 30% 1015.7 hPa 0 mm - 200 W/m² -
1787963887 35° C 30% 1015.8 hPa 0 mm - 220 W/m² -

* Rain latest hour (hover to see other rain measurements)
** Current wind speed in m/s (hover to see current wind gust speed)